Flag for Sweden Weather past 2 weeks in Stockholm, Sweden

Now
55 °F

Fog.


Feels Like: 55 °F
Forecast: 49 / 62 °F
Wind: No wind

Location: Stockholm Bromma Airport

Current Time: Sep 20, 2014 at 4:10:26 AM

Latest Report: Sep 20, 2014 at 3:20 AM


Visibility: 3 mi

Pressure: 30.04 "Hg

Humidity: 94%

Dew point: 54 °F

Location of StockholmLocation

Historic Weather in Stockholm — Graph

°F

Stockholm temperature yesterday

Maximum temperature yesterday: 66 °F (at 1:20 PM)
Minimum temperature yesterday: 46 °F (at 3:20 AM)
Average temperature yesterday: 56 °F

Past Weeks' High & Low Weather Summary

 TemperatureHumidityPressure
High70 °F (Sep 8, 1:20 PM)100% (Sep 5, 10:20 PM)30.48 "Hg (Sep 5, 10:20 PM)
Low39 °F (Sep 17, 5:20 AM)49% (Sep 5, 2:20 PM)29.80 "Hg (Sep 9, 3:50 AM)
Average57 °F83%30.19 "Hg
* Reported Sep 5 2:20 AM — Sep 20 2:50 AM, Stockholm, Weather by CustomWeather, © 2014

Note: Actual official high and low records may vary slightly from our data, if they occured in-between our weather recording intervals... More about our weather records

Advertising

Stockholm weather history for previous 24 hours

 ConditionsComfort  
Time TempWeatherWind HumidityBarometerVisibility
2:50 AM
Sep 20
55 °FFog.2 mph100%30.04 "Hg2 mi
1:50 AM54 °FFog.1 mph100%30.04 "Hg2 mi
1:20 AM52 °FMostly cloudy.No wind100%30.04 "Hg2 mi
12:50 AM50 °FMostly cloudy.No wind100%30.04 "Hg1 mi
12:20 AM48 °FMostly cloudy.1 mph100%30.04 "Hg0 mi
11:50 PM
Sep 19
48 °FFog.No wind100%30.04 "Hg0 mi
11:20 PM50 °FDense fog.No wind100%30.04 "Hg0 mi
10:50 PM50 °FDense fog.No wind100%30.04 "Hg0 mi
10:20 PM50 °FLight fog.No wind100%30.07 "Hg0 mi
9:50 PM52 °FClear.No wind100%30.07 "Hg10 mi
9:20 PM54 °FClear.No wind94%30.07 "Hg10 mi
8:50 PM55 °FClear.2 mph94%30.07 "Hg10 mi
8:20 PM57 °FClear.5 mph94%30.07 "Hg10 mi
7:50 PM59 °FSunny.5 mph88%30.07 "Hg10 mi
7:20 PM59 °FSunny.6 mph88%30.07 "Hg10 mi
6:50 PM61 °FSunny.6 mph77%30.07 "Hg10 mi
6:20 PM63 °FSunny.5 mph73%30.07 "Hg10 mi
5:50 PM64 °FSunny.7 mph64%30.07 "Hg10 mi
5:20 PM66 °FPassing clouds.6 mph60%30.07 "HgN/A
4:50 PM66 °FPassing clouds.7 mph56%30.07 "HgN/A
4:20 PM66 °FPassing clouds.7 mph60%30.07 "HgN/A
3:50 PM66 °FPassing clouds.7 mph60%30.07 "HgN/A
3:20 PM66 °FPassing clouds.6 mph64%30.07 "HgN/A
2:50 PM66 °FPassing clouds.5 mph64%30.09 "HgN/A
2:20 PM66 °FPassing clouds.6 mph64%30.09 "HgN/A
1:50 PM66 °FSunny.3 mph64%30.09 "Hg10 mi
1:20 PM66 °FPassing clouds.3 mph60%30.09 "HgN/A
12:50 PM64 °FSunny.2 mph64%30.09 "Hg10 mi
12:20 PM64 °FSunny.5 mph68%30.12 "Hg10 mi
11:50 AM63 °FSunny.2 mph77%30.12 "Hg10 mi
11:20 AM61 °FSunny.2 mph94%30.12 "Hg10 mi
10:50 AM57 °FFog.3 mph100%30.12 "Hg2 mi
10:20 AM57 °FScattered clouds.No wind100%30.12 "Hg1 mi
9:50 AM55 °FFog.No wind100%30.15 "Hg0 mi
9:20 AM54 °FFog.No wind100%30.15 "Hg0 mi
8:50 AM54 °FFog.No wind100%30.15 "Hg0 mi
8:20 AM52 °FFog.1 mph100%30.15 "Hg0 mi
7:50 AM52 °FFog.No wind100%30.15 "Hg0 mi
7:20 AM52 °FFog.No wind100%30.15 "Hg0 mi
6:50 AM50 °FFog.No wind100%30.15 "Hg0 mi
6:20 AM50 °FFog.No wind100%30.15 "Hg0 mi
5:50 AM48 °FFog.No wind100%30.15 "Hg0 mi
5:20 AM48 °FFog.No wind100%30.15 "Hg0 mi
4:50 AM46 °FFog.No wind100%30.15 "Hg0 mi
4:20 AM46 °FFog.No wind100%30.15 "Hg0 mi
Weather by CustomWeather, © 2014

See weather overviewHow to use our weather pages